Date,TemperatureHighF,TemperatureAvgF,TemperatureLowF,DewpointHighF,DewpointAvgF,DewpointLowF,HumidityHigh,HumidityAvg,HumidityLow,PressureMaxIn,PressureMinIn,WindSpeedMaxMPH,WindSpeedAvgMPH,GustSpeedMaxMPH,PrecipitationSumIn
2013-3-1,35.2,30.4,22.7,27.6,24.7,18.7,88,80,66,30.42,30.28,20,8,20,0.00
2013-3-2,42.4,29.5,16.5,26.7,21.7,14.3,93,74,48,30.45,30.21,8,3,8,0.00
2013-3-3,56.9,42.2,28.7,40.9,32.8,24.9,88,71,54,30.21,29.64,16,6,16,0.00
2013-3-4,46.9,42.2,36.3,38.7,35.7,32.2,92,78,67,30.11,29.58,26,10,27,0.04
2013-3-5,42.8,35.4,27.2,35.1,22.9,18.5,93,61,45,30.45,30.11,26,12,26,0.00
2013-3-6,46.9,34.6,22.1,28.6,22.9,18.5,90,64,43,30.49,30.23,12,4,12,0.00
2013-3-7,67.3,49.7,33.7,33.3,29.1,24.7,73,48,26,30.23,30.00,25,9,25,0.00
2013-3-8,60.9,52.5,45.8,48.6,40.9,31.8,80,65,50,30.09,29.88,23,9,23,0.00
2013-3-9,58.6,54.0,42.3,57.7,51.8,40.5,99,93,76,29.89,29.54,20,8,20,0.88
2013-3-10,42.3,34.0,29.4,40.9,30.5,23.4,95,87,78,30.04,29.58,33,18,33,0.01
2013-3-11,48.5,34.6,23.7,29.1,21.9,18.5,84,63,32,30.10,30.01,12,5,20,0.00
2013-3-12,53.2,44.1,32.3,37.5,29.5,24.5,83,58,37,30.40,30.07,21,6,21,0.00
2013-3-13,56.7,41.2,25.2,33.8,27.2,21.7,91,61,35,30.50,30.30,20,5,20,0.00
2013-3-14,78.5,54.7,36.0,47.3,38.0,28.6,81,57,25,30.30,30.07,15,6,15,0.00
2013-3-15,80.9,60.6,41.9,53.4,46.9,39.5,93,64,35,30.09,29.68,18,4,18,0.00
2013-3-16,60.7,47.9,37.9,49.3,38.9,30.7,84,71,59,30.00,29.68,25,12,25,0.00
2013-3-17,42.4,38.5,35.3,36.7,33.1,29.2,94,81,74,30.01,29.71,21,8,21,0.00
2013-3-18,58.0,45.5,37.7,38.0,30.6,21.0,95,62,25,30.07,29.78,22,8,22,0.00
2013-3-19,55.9,43.7,30.6,33.1,24.8,19.4,81,49,29,30.31,30.06,15,6,15,0.00
2013-3-20,49.1,39.0,29.8,31.1,22.8,17.0,93,56,31,30.46,30.06,16,5,16,0.00
2013-3-21,49.4,40.2,34.7,31.0,23.6,19.1,86,53,36,30.06,29.74,24,12,24,0.00
2013-3-22,49.6,38.5,31.5,37.1,32.5,29.7,94,80,57,30.00,29.87,13,7,13,0.00
2013-3-23,36.9,34.1,31.4,33.7,32.3,30.3,96,93,82,29.99,29.87,25,9,25,0.17
2013-3-24,34.6,29.2,23.9,30.3,24.6,22.0,97,84,60,30.23,29.96,30,16,30,0.20
2013-3-25,35.7,29.3,23.8,23.0,19.6,17.9,81,68,51,30.46,30.23,25,10,25,0.01
2013-3-26,49.4,34.0,17.0,29.1,22.3,14.8,94,65,43,30.51,30.26,15,4,15,0.00
2013-3-27,63.2,48.5,36.8,38.1,30.8,23.1,69,51,35,30.26,30.08,21,7,21,0.00
2013-3-28,68.1,52.0,34.9,49.4,40.5,31.5,89,67,46,30.18,30.06,12,3,12,0.00
2013-3-29,73.2,60.1,43.1,57.2,50.8,41.3,97,73,52,30.14,30.00,14,4,14,0.00
2013-3-30,74.0,60.7,51.4,60.2,54.9,50.1,97,83,52,30.00,29.83,21,5,21,0.45
2013-3-31,65.6,55.5,44.4,52.8,44.1,37.2,97,69,36,30.05,29.93,29,6,29,0.04